Great Bend, NY

8:25 AM EST on February 24, 2017 (GMT -0500)
Wheeler-Sack Army Air Field

Weather History for KGTB - March, 2013

Change the Weather History Date:

Sunday, March 3, 2013

  Actual Average Record
Temperature  
Mean Temperature 19 °F -  
Max Temperature 23 °F 31 °F 53 °F (2002)
Min Temperature 15 °F 14 °F -14 °F (2003)
Degree Days  
Heating Degree Days 46    
Moisture  
Dew Point 16 °F    
Average Humidity 89    
Maximum Humidity 100    
Minimum Humidity 68    
Precipitation  
Precipitation 0.00 in - - ()
Sea Level Pressure  
Sea Level Pressure 29.85 in    
Wind  
Wind Speed 5 mph (WNW)    
Max Wind Speed 9 mph    
Max Gust Speed -    
Visibility 8 miles    
Events Snow    
Averages and records for this station are not official NWS values.
T = Trace of Precipitation, MM = Missing Value Source: NWS Daily Summary

Daily Weather History Graph

Daily Weather History Graph

Search for Another Location

Airport or City:

Trip Planner

Search our weather history database for the weather conditions in past years. The results will help you decide how hot, cold, wet, or windy it might be!

Date:

Astronomy

Mar. 03, 2013 Rise Set
Actual Time 6:36 AM EST 5:54 PM EST
Civil Twilight 6:07 AM EST 6:23 PM EST
Nautical Twilight 5:33 AM EST 6:56 PM EST
Astronomical Twilight 5:00 AM EST 7:30 PM EST
Moon No Moon Rise 9:35 AM EST (3/3)
Length of Visible Light 12h 15m
Length of Day
11h 18m
Waning Gibbous, 64% of the Moon is Illuminated
Mar 3
Waning Gibbous
Mar 4
Last Quarter
Mar 11
New
Mar 19
First Quarter
Mar 27
Full

Hourly Weather History & Observations

Time (EST) Temp. Windchill Dew Point Humidity Pressure Visibility Wind Dir Wind Speed Gust Speed Precip Events Conditions
12:01 AM 17.6 °F 12.3 °F 15.8 °F 93% 29.86 in 8.0 mi WNW 3.5 mph - N/A Snow Light Snow
12:17 AM 17.6 °F 10.7 °F 15.8 °F 93% 29.86 in 7.0 mi NW 4.6 mph - N/A Snow Light Snow
12:19 AM 17.6 °F 12.3 °F 15.8 °F 93% 29.86 in 6.0 mi WNW 3.5 mph - N/A Snow Light Snow
12:25 AM 17.6 °F 10.7 °F 15.8 °F 93% 29.86 in 6.0 mi NW 4.6 mph - N/A Snow Light Snow
12:32 AM 17.6 °F 10.7 °F 15.8 °F 93% 29.86 in 5.0 mi NW 4.6 mph - N/A Snow Light Snow
12:33 AM 17.6 °F 10.7 °F 15.8 °F 93% 29.86 in 5.0 mi NW 4.6 mph - N/A Snow Light Snow
12:38 AM 17.6 °F 10.7 °F 15.8 °F 93% 29.86 in 5.0 mi NW 4.6 mph - N/A Snow Light Snow
12:39 AM 17.6 °F 10.7 °F 15.8 °F 93% 29.86 in 5.0 mi NW 4.6 mph - N/A Snow Light Snow
12:40 AM 17.6 °F 10.7 °F 15.8 °F 93% 29.86 in 5.0 mi NW 4.6 mph - N/A Snow Light Snow
12:41 AM 17.6 °F 10.7 °F 15.8 °F 93% 29.86 in 5.0 mi NW 4.6 mph - N/A Snow Light Snow
12:43 AM 17.6 °F 9.3 °F 15.8 °F 93% 29.86 in 5.0 mi NW 5.8 mph - N/A Snow Light Snow
12:44 AM 17.6 °F 9.3 °F 15.8 °F 93% 29.86 in 5.0 mi NW 5.8 mph - N/A Snow Light Snow
12:55 AM 17.8 °F 9.6 °F 16.2 °F 93% 29.86 in 6.0 mi NW 5.8 mph - 0.00 in Snow Light Snow
1:04 AM 17.6 °F 8.2 °F 15.8 °F 93% 29.86 in 6.0 mi NW 6.9 mph - N/A Snow Light Snow
1:06 AM 17.6 °F 8.2 °F 15.8 °F 93% 29.86 in 6.0 mi NW 6.9 mph - N/A Snow Light Snow
1:23 AM 17.6 °F 8.2 °F 15.8 °F 93% 29.86 in 7.0 mi NW 6.9 mph - N/A Snow Light Snow
1:33 AM 17.6 °F 9.3 °F 15.8 °F 93% 29.86 in 9.0 mi NW 5.8 mph - N/A Snow Light Snow
1:47 AM 17.6 °F 9.3 °F 15.8 °F 93% 29.86 in 7.0 mi NNW 5.8 mph - N/A Snow Light Snow
1:52 AM 17.6 °F 10.7 °F 15.8 °F 93% 29.86 in 8.0 mi NNW 4.6 mph - N/A Snow Light Snow
1:55 AM 17.1 °F 10.0 °F 15.4 °F 93% 29.86 in 9.0 mi NNW 4.6 mph - 0.00 in Snow Light Snow
1:58 AM 17.6 °F 10.7 °F 15.8 °F 93% 29.86 in 10.0 mi NW 4.6 mph - N/A Snow Light Snow
2:05 AM 17.6 °F 10.7 °F 15.8 °F 93% 29.85 in 9.0 mi NNW 4.6 mph - N/A Snow Light Snow
2:15 AM 17.6 °F 9.3 °F 15.8 °F 93% 29.85 in 8.0 mi NW 5.8 mph - N/A Snow Light Snow
2:18 AM 17.6 °F 8.2 °F 15.8 °F 93% 29.85 in 8.0 mi NNW 6.9 mph - N/A Snow Light Snow
2:49 AM 17.6 °F 10.7 °F 15.8 °F 93% 29.84 in 7.0 mi NW 4.6 mph - N/A Snow Light Snow
2:50 AM 17.6 °F 10.7 °F 15.8 °F 93% 29.84 in 7.0 mi NW 4.6 mph - N/A Snow Light Snow
2:55 AM 16.9 °F 7.4 °F 15.4 °F 94% 29.84 in 8.0 mi NW 6.9 mph - 0.00 in Snow Light Snow
2:56 AM 17.6 °F 8.2 °F 15.8 °F 93% 29.84 in 9.0 mi NW 6.9 mph - N/A Snow Light Snow
3:09 AM 17.6 °F 9.3 °F 15.8 °F 93% 29.84 in 9.0 mi NNW 5.8 mph - N/A Snow Light Snow
3:17 AM 17.6 °F 8.2 °F 15.8 °F 93% 29.84 in 7.0 mi NNW 6.9 mph - N/A Snow Light Snow
3:20 AM 17.6 °F 7.3 °F 15.8 °F 93% 29.83 in 7.0 mi NNW 8.1 mph - N/A Snow Light Snow
3:27 AM 17.6 °F 9.3 °F 15.8 °F 93% 29.83 in 6.0 mi NNW 5.8 mph - N/A Snow Light Snow
3:35 AM 15.8 °F 7.2 °F 15.8 °F 100% 29.83 in 7.0 mi NNW 5.8 mph - N/A Snow Light Snow
3:39 AM 15.8 °F 10.2 °F 15.8 °F 100% 29.83 in 7.0 mi WNW 3.5 mph - N/A Snow Light Snow
3:55 AM 16.7 °F 9.6 °F 15.1 °F 93% 29.84 in 8.0 mi NW 4.6 mph - 0.00 in Snow Light Snow
4:11 AM 15.8 °F 7.2 °F 15.8 °F 100% 29.83 in 5.0 mi NW 5.8 mph - N/A Snow Light Snow
4:55 AM 16.0 °F 7.4 °F 14.5 °F 94% 29.84 in 9.0 mi NW 5.8 mph - 0.00 in Snow Light Snow
5:18 AM 15.8 °F 7.2 °F 14.0 °F 93% 29.85 in 10.0 mi WNW 5.8 mph - N/A   Overcast
5:41 AM 15.8 °F 8.6 °F 14.0 °F 93% 29.85 in 10.0 mi NW 4.6 mph - N/A   Overcast
5:42 AM 15.8 °F 10.2 °F 14.0 °F 93% 29.85 in 10.0 mi NW 3.5 mph - N/A   Overcast
5:44 AM 15.8 °F 10.2 °F 14.0 °F 93% 29.85 in 10.0 mi NW 3.5 mph - N/A Snow Light Snow
5:47 AM 15.8 °F 7.2 °F 14.0 °F 93% 29.85 in 10.0 mi NW 5.8 mph - N/A Snow Light Snow
5:55 AM 16.0 °F 7.4 °F 13.8 °F 91% 29.85 in 10.0 mi NW 5.8 mph - 0.00 in Snow Light Snow
6:23 AM 15.8 °F 8.6 °F 14.0 °F 93% 29.85 in 6.0 mi NW 4.6 mph - N/A Snow Light Snow
6:33 AM 15.8 °F 10.2 °F 14.0 °F 93% 29.85 in 5.0 mi NW 3.5 mph - N/A Snow Light Snow
6:37 AM 15.8 °F 8.6 °F 14.0 °F 93% 29.85 in 5.0 mi NW 4.6 mph - N/A Snow Light Snow
6:38 AM 15.8 °F 10.2 °F 14.0 °F 93% 29.85 in 5.0 mi NW 3.5 mph - N/A Snow Light Snow
6:41 AM 15.8 °F 8.6 °F 14.0 °F 93% 29.85 in 5.0 mi WNW 4.6 mph - N/A Snow Light Snow
6:46 AM 15.8 °F 10.2 °F 14.0 °F 93% 29.85 in 5.0 mi WNW 3.5 mph - N/A Snow Light Snow
6:55 AM 15.6 °F 10.0 °F 13.6 °F 92% 29.85 in 4.0 mi WNW 3.5 mph - 0.00 in Snow Light Snow
7:11 AM 15.8 °F 10.2 °F 14.0 °F 93% 29.86 in 8.0 mi WNW 3.5 mph - N/A Snow Light Snow
7:20 AM 15.8 °F 10.2 °F 14.0 °F 93% 29.86 in 10.0 mi NW 3.5 mph - N/A Snow Light Snow
7:35 AM 15.8 °F 8.6 °F 14.0 °F 93% 29.86 in 10.0 mi WNW 4.6 mph - N/A Snow Light Snow
7:52 AM 15.8 °F 7.2 °F 14.0 °F 93% 29.86 in 8.0 mi NNW 5.8 mph - N/A Snow Light Snow
7:55 AM 16.2 °F 10.6 °F 14.0 °F 91% 29.86 in 7.0 mi WNW 3.5 mph - 0.00 in Snow Light Snow
8:06 AM 15.8 °F 7.2 °F 14.0 °F 93% 29.86 in 5.0 mi WNW 5.8 mph - N/A Snow Light Snow
8:15 AM 15.8 °F 7.2 °F 14.0 °F 93% 29.86 in 8.0 mi NW 5.8 mph - N/A Snow Light Snow
8:24 AM 15.8 °F 7.2 °F 14.0 °F 93% 29.86 in 6.0 mi NW 5.8 mph - N/A Snow Light Snow
8:26 AM 15.8 °F 7.2 °F 14.0 °F 93% 29.86 in 6.0 mi NW 5.8 mph - N/A Snow Light Snow
8:36 AM 15.8 °F 10.2 °F 14.0 °F 93% 29.86 in 5.0 mi NW 3.5 mph - N/A Snow Light Snow
8:42 AM 15.8 °F 7.2 °F 14.0 °F 93% 29.86 in 6.0 mi NW 5.8 mph - N/A Snow Light Snow
8:55 AM 17.4 °F 10.4 °F 13.8 °F 86% 29.86 in 9.0 mi NW 4.6 mph - 0.00 in Snow Light Snow
8:56 AM 17.6 °F 10.7 °F 14.0 °F 86% 29.86 in 9.0 mi NNW 4.6 mph - N/A Snow Light Snow
8:57 AM 17.6 °F 10.7 °F 14.0 °F 86% 29.86 in 9.0 mi NW 4.6 mph - N/A Snow Light Snow
9:02 AM 17.6 °F 10.7 °F 14.0 °F 86% 29.86 in 10.0 mi NW 4.6 mph - N/A Snow Light Snow
9:06 AM 17.6 °F 10.7 °F 14.0 °F 86% 29.86 in 10.0 mi NW 4.6 mph - N/A Snow Light Snow
9:12 AM 17.6 °F 10.7 °F 14.0 °F 86% 29.86 in 10.0 mi NW 4.6 mph - N/A Snow Light Snow
9:55 AM 19.0 °F 11.1 °F 14.0 °F 81% 29.84 in 10.0 mi NW 5.8 mph - 0.00 in   Overcast
10:06 AM 19.4 °F 11.5 °F 14.0 °F 80% 29.84 in 10.0 mi NW 5.8 mph - N/A   Overcast
10:55 AM 20.7 °F 14.2 °F 14.5 °F 77% 29.83 in 10.0 mi Variable 4.6 mph - 0.00 in   Overcast
11:17 AM 21.2 °F 12.6 °F 14.0 °F 74% 29.83 in 10.0 mi WNW 6.9 mph - N/A   Overcast
11:44 AM 21.2 °F 13.6 °F 14.0 °F 74% 29.84 in 10.0 mi West 5.8 mph - N/A   Overcast
11:55 AM 21.9 °F 11.7 °F 14.4 °F 73% 29.84 in 10.0 mi NW 9.2 mph - 0.00 in   Overcast
12:15 PM 23.0 °F 14.7 °F 14.0 °F 68% 29.83 in 10.0 mi West 6.9 mph - N/A   Overcast
12:43 PM 23.0 °F 14.7 °F 15.8 °F 74% 29.82 in 10.0 mi Variable 6.9 mph - N/A   Overcast
12:55 PM 22.8 °F 16.7 °F 14.9 °F 72% 29.82 in 10.0 mi Variable 4.6 mph - 0.00 in   Overcast
1:20 PM 23.0 °F 13.9 °F 15.8 °F 74% 29.82 in 10.0 mi NW 8.1 mph - N/A   Overcast
1:52 PM 23.0 °F 13.9 °F 14.0 °F 68% 29.81 in 10.0 mi West 8.1 mph - N/A   Overcast
1:55 PM 23.2 °F 14.1 °F 14.7 °F 70% 29.81 in 10.0 mi West 8.1 mph - N/A   Overcast
2:55 PM 22.1 °F 12.0 °F 15.4 °F 76% 29.82 in 10.0 mi West 9.2 mph - N/A   Overcast
3:55 PM 21.7 °F 12.3 °F 14.9 °F 75% 29.82 in 10.0 mi West 8.1 mph - N/A   Overcast
4:36 PM 21.2 °F 10.9 °F 15.8 °F 80% 29.83 in 10.0 mi West 9.2 mph - N/A   Overcast
4:49 PM 21.2 °F 11.7 °F 15.8 °F 80% 29.83 in 10.0 mi West 8.1 mph - N/A   Overcast
4:55 PM 21.2 °F 13.6 °F 15.4 °F 78% 29.83 in 10.0 mi WSW 5.8 mph - 0.00 in   Overcast
5:07 PM 21.2 °F 11.7 °F 15.8 °F 80% 29.83 in 10.0 mi West 8.1 mph - N/A   Overcast
5:37 PM 21.2 °F 11.7 °F 15.8 °F 80% 29.83 in 10.0 mi West 8.1 mph - N/A Snow Light Snow
5:55 PM 21.0 °F 11.4 °F 16.3 °F 82% 29.84 in 10.0 mi West 8.1 mph - 0.00 in Snow Light Snow
5:58 PM 21.2 °F 12.6 °F 15.8 °F 80% 29.84 in 10.0 mi West 6.9 mph - N/A Snow Light Snow
6:08 PM 21.2 °F 13.6 °F 15.8 °F 80% 29.84 in 10.0 mi West 5.8 mph - N/A Snow Light Snow
6:36 PM 21.2 °F 13.6 °F 17.6 °F 86% 29.85 in 8.0 mi West 5.8 mph - N/A Snow Light Snow
6:37 PM 21.2 °F 13.6 °F 17.6 °F 86% 29.85 in 8.0 mi West 5.8 mph - N/A Snow Light Snow
6:41 PM 21.2 °F 11.7 °F 17.6 °F 86% 29.85 in 8.0 mi West 8.1 mph - N/A Snow Light Snow
6:48 PM 21.2 °F 12.6 °F 17.6 °F 86% 29.85 in 8.0 mi West 6.9 mph - N/A Snow Light Snow
6:50 PM 21.2 °F 12.6 °F 17.6 °F 86% 29.85 in 9.0 mi West 6.9 mph - N/A Snow Light Snow
6:55 PM 20.7 °F 13.0 °F 17.4 °F 87% 29.85 in 9.0 mi West 5.8 mph - 0.00 in Snow Light Snow
7:05 PM 21.2 °F 11.7 °F 17.6 °F 86% 29.85 in 10.0 mi West 8.1 mph - N/A Snow Light Snow
7:08 PM 21.2 °F 12.6 °F 17.6 °F 86% 29.85 in 10.0 mi WSW 6.9 mph - N/A Snow Light Snow
7:16 PM 21.2 °F 12.6 °F 17.6 °F 86% 29.85 in 10.0 mi West 6.9 mph - N/A Snow Light Snow
7:55 PM 20.8 °F 13.2 °F 17.8 °F 88% 29.85 in 10.0 mi West 5.8 mph - 0.00 in Snow Light Snow
8:41 PM 21.2 °F 13.6 °F 17.6 °F 86% 29.85 in 10.0 mi West 5.8 mph - N/A   Overcast
8:55 PM 21.4 °F 13.8 °F 18.3 °F 88% 29.85 in 10.0 mi West 5.8 mph - 0.00 in   Overcast
9:55 PM 21.7 °F 17.0 °F 18.5 °F 87% 29.84 in 10.0 mi West 3.5 mph - N/A   Overcast
10:11 PM 21.2 °F 16.4 °F 19.4 °F 93% 29.84 in 10.0 mi West 3.5 mph - N/A   Overcast
10:27 PM 21.2 °F 16.4 °F 19.4 °F 93% 29.83 in 10.0 mi West 3.5 mph - N/A   Overcast
10:28 PM 21.2 °F 16.4 °F 19.4 °F 93% 29.83 in 10.0 mi West 3.5 mph - N/A   Overcast
10:29 PM 21.2 °F 14.9 °F 19.4 °F 93% 29.83 in 10.0 mi West 4.6 mph - N/A   Overcast
10:30 PM 21.2 °F 14.9 °F 19.4 °F 93% 29.83 in 10.0 mi WNW 4.6 mph - N/A   Overcast
10:55 PM 21.7 °F 14.3 °F 18.7 °F 88% 29.83 in 10.0 mi WNW 5.8 mph - 0.00 in   Overcast
10:58 PM 21.2 °F 13.6 °F 19.4 °F 93% 29.83 in 10.0 mi WNW 5.8 mph - N/A   Overcast
11:02 PM 21.2 °F 14.9 °F 19.4 °F 93% 29.83 in 10.0 mi WNW 4.6 mph - N/A   Overcast
11:08 PM 21.2 °F 14.9 °F 19.4 °F 93% 29.83 in 10.0 mi WNW 4.6 mph - N/A   Overcast
11:22 PM 21.2 °F 16.4 °F 19.4 °F 93% 29.83 in 10.0 mi West 3.5 mph - N/A   Overcast
11:23 PM 21.2 °F 16.4 °F 19.4 °F 93% 29.83 in 10.0 mi West 3.5 mph - N/A   Overcast
11:41 PM 21.2 °F 16.4 °F 19.4 °F 93% 29.83 in 10.0 mi Variable 3.5 mph - N/A   Overcast
11:55 PM 21.9 °F 15.7 °F 18.9 °F 88% 29.83 in 10.0 mi West 4.6 mph - 0.00 in   Overcast